| time (UTC) | temp F | wind direction | speed knots | gust knots | rain 1hr in | rain 24hr in | rain mn in | humidity % | barometer mb |
| 20260505100535 | 48 | 332 | 7.8 | 13.0 | 0.00 | 0.00 | 0.00 | 31 | 1011.2 |
| 20260505100040 | 48 | 299 | 3.5 | 10.4 | 0.00 | 0.00 | 0.00 | 34 | 1011.2 |
| 20260505095534 | 47 | 297 | 5.2 | 11.3 | 0.00 | 0.00 | 0.00 | 31 | 1011.3 |
| 20260505095034 | 47 | 308 | 7.0 | 13.0 | 0.00 | 0.00 | 0.00 | 32 | 1011.3 |
| 20260505094540 | 48 | 334 | 8.7 | 13.0 | 0.00 | 0.00 | 0.00 | 32 | 1011.2 |
| 20260505094034 | 48 | 275 | 2.6 | 10.4 | 0.00 | 0.00 | 0.00 | 35 | 1011.2 |
| 20260505093534 | 47 | 296 | 5.2 | 8.7 | 0.00 | 0.00 | 0.00 | 33 | 1011.3 |
| 20260505093044 | 47 | 300 | 2.6 | 13.0 | 0.00 | 0.00 | 0.00 | 34 | 1011.3 |
| 20260505092534 | 47 | 30 | 7.0 | 13.0 | 0.00 | 0.00 | 0.00 | 31 | 1011.2 |
| 20260505092034 | 47 | 313 | 5.2 | 9.6 | 0.00 | 0.00 | 0.00 | 32 | 1011.3 |
| 20260505091541 | 47 | 319 | 5.2 | 11.3 | 0.00 | 0.00 | 0.00 | 38 | 1011.2 |
| 20260505091036 | 46 | 345 | 3.5 | 11.3 | 0.00 | 0.00 | 0.00 | 36 | 1011.2 |
| 20260505090534 | 46 | 21 | 7.0 | 11.3 | 0.00 | 0.00 | 0.00 | 37 | 1011.3 |
| 20260505090051 | 46 | 336 | 5.2 | 8.7 | 0.00 | 0.00 | 0.00 | 36 | 1011.1 |
| 20260505085535 | 47 | 359 | 3.5 | 7.8 | 0.00 | 0.00 | 0.00 | 39 | 1011.1 |
| 20260505085036 | 46 | 309 | 4.3 | 13.9 | 0.00 | 0.00 | 0.00 | 37 | 1011.1 |
| 20260505084548 | 45 | 354 | 2.6 | 13.9 | 0.00 | 0.00 | 0.00 | 40 | 1011.1 |
| 20260505084033 | 45 | 342 | 7.8 | 12.2 | 0.00 | 0.00 | 0.00 | 38 | 1011.2 |
| 20260505083535 | 44 | 325 | 6.1 | 12.2 | 0.00 | 0.00 | 0.00 | 38 | 1011.2 |
| 20260505083046 | 44 | 323 | 5.2 | 11.3 | 0.00 | 0.00 | 0.00 | 38 | 1011.2 |
| 20260505082535 | 45 | 20 | 2.6 | 9.6 | 0.00 | 0.00 | 0.00 | 38 | 1011.3 |
| 20260505082034 | 44 | 51 | 5.2 | 9.6 | 0.00 | 0.00 | 0.00 | 39 | 1011.2 |
| 20260505081551 | 44 | 283 | 3.5 | 13.0 | 0.00 | 0.00 | 0.00 | 39 | 1011.3 |
| 20260505081034 | 44 | 269 | 3.5 | 13.0 | 0.00 | 0.00 | 0.00 | 40 | 1011.3 |
| 20260505080538 | 43 | 326 | 7.0 | 12.2 | 0.00 | 0.00 | 0.00 | 39 | 1011.3 |
| 20260505080048 | 43 | 297 | 6.1 | 10.4 | 0.00 | 0.00 | 0.00 | 40 | 1011.2 |
| 20260505075535 | 43 | 346 | 5.2 | 10.4 | 0.00 | 0.00 | 0.00 | 39 | 1011.3 |
| 20260505075034 | 43 | 313 | 4.3 | 11.3 | 0.00 | 0.00 | 0.00 | 41 | 1011.2 |
| 20260505074541 | 43 | 295 | 7.0 | 11.3 | 0.00 | 0.00 | 0.00 | 40 | 1011.1 |
| 20260505074034 | 43 | 347 | 7.0 | 11.3 | 0.00 | 0.00 | 0.00 | 40 | 1011.2 |
| 20260505073535 | 43 | 329 | 6.1 | 11.3 | 0.00 | 0.00 | 0.00 | 41 | 1011.2 |
| 20260505073048 | 42 | 340 | 3.5 | 10.4 | 0.00 | 0.00 | 0.00 | 42 | 1011.2 |
| 20260505072534 | 42 | 295 | 4.3 | 10.4 | 0.00 | 0.00 | 0.00 | 43 | 1011.1 |
| 20260505072036 | 42 | 321 | 5.2 | 15.6 | 0.00 | 0.00 | 0.00 | 44 | 1011.0 |
| 20260505071552 | 42 | 290 | 6.1 | 16.5 | 0.00 | 0.00 | 0.00 | 44 | 1011.1 |
| 20260505071034 | 41 | 337 | 7.8 | 16.5 | 0.00 | 0.00 | 0.00 | 44 | 1011.0 |
| 20260505070536 | 41 | 349 | 5.2 | 16.5 | 0.00 | 0.00 | 0.00 | 45 | 1010.9 |
| 20260505070044 | 41 | 293 | 6.1 | 11.3 | 0.00 | 0.00 | 0.00 | 45 | 1010.9 |
| 20260505065534 | 40 | 342 | 7.8 | 11.3 | 0.00 | 0.00 | 0.00 | 45 | 1010.9 |
| 20260505065033 | 40 | 330 | 5.2 | 12.2 | 0.00 | 0.00 | 0.00 | 44 | 1010.8 |
| 20260505064542 | 40 | 323 | 5.2 | 12.2 | 0.00 | 0.00 | 0.00 | 45 | 1010.8 |
| 20260505064036 | 40 | 352 | 5.2 | 13.9 | 0.00 | 0.00 | 0.00 | 45 | 1010.9 |
| 20260505063534 | 40 | 4 | 6.1 | 13.9 | 0.00 | 0.00 | 0.00 | 45 | 1010.8 |
| 20260505063047 | 40 | 314 | 6.1 | 13.0 | 0.00 | 0.00 | 0.00 | 46 | 1011.0 |
| 20260505062534 | 40 | 339 | 4.3 | 11.3 | 0.00 | 0.00 | 0.00 | 46 | 1010.9 |
| 20260505062035 | 40 | 17 | 5.2 | 9.6 | 0.00 | 0.00 | 0.00 | 46 | 1010.8 |
| 20260505061548 | 40 | 342 | 5.2 | 11.3 | 0.00 | 0.00 | 0.00 | 47 | 1010.9 |
| 20260505061034 | 39 | 1 | 6.1 | 11.3 | 0.00 | 0.00 | 0.00 | 49 | 1010.9 |
| 20260505060536 | 39 | 312 | 3.5 | 11.3 | 0.00 | 0.00 | 0.00 | 50 | 1010.9 |
| 20260505060051 | 39 | 302 | 4.3 | 14.8 | 0.00 | 0.00 | 0.00 | 49 | 1010.8 |
| 20260505055538 | 39 | 309 | 7.0 | 14.8 | 0.00 | 0.00 | 0.00 | 48 | 1010.9 |
| 20260505055035 | 39 | 323 | 5.2 | 9.6 | 0.00 | 0.00 | 0.00 | 50 | 1010.9 |
| 20260505054555 | 39 | 328 | 3.5 | 14.8 | 0.00 | 0.00 | 0.00 | 50 | 1011.0 |
| 20260505054035 | 38 | 356 | 7.8 | 14.8 | 0.00 | 0.00 | 0.00 | 50 | 1010.9 |
| 20260505053534 | 38 | 349 | 5.2 | 13.9 | 0.00 | 0.00 | 0.00 | 50 | 1010.8 |
| 20260505053054 | 38 | 53 | 6.1 | 13.9 | 0.00 | 0.00 | 0.00 | 51 | 1010.7 |
| 20260505052534 | 38 | 1 | 6.1 | 12.2 | 0.00 | 0.00 | 0.00 | 52 | 1010.8 |
| 20260505052034 | 38 | 309 | 5.2 | 12.2 | 0.00 | 0.00 | 0.00 | 51 | 1010.7 |
| 20260505051549 | 38 | 329 | 1.7 | 7.0 | 0.00 | 0.00 | 0.00 | 53 | 1010.8 |
| 20260505051034 | 38 | 355 | 0.9 | 9.6 | 0.00 | 0.00 | 0.00 | 52 | 1010.7 |
| 20260505050536 | 37 | 356 | 3.5 | 9.6 | 0.00 | 0.00 | 0.00 | 53 | 1010.6 |
| 20260505041545 | 34 | 0 | 0.0 | 1.7 | 0.00 | 0.00 | 0.00 | 61 | 1010.5 |
| 20260505041034 | 33 | 0 | 0.0 | 1.7 | 0.00 | 0.00 | 0.00 | 62 | 1010.5 |
| 20260505040537 | 32 | 0 | 0.0 | 1.7 | 0.00 | 0.00 | 0.00 | 64 | 1010.5 |
| 20260505040044 | 32 | 0 | 0.0 | 0.0 | 0.00 | 0.00 | 0.00 | 67 | 1010.3 |
| 20260505035535 | 32 | 0 | 0.0 | 0.9 | 0.00 | 0.00 | 0.00 | 64 | 1010.4 |
| 20260505035035 | 32 | 0 | 0.0 | 0.9 | 0.00 | 0.00 | 0.00 | 63 | 1010.3 |
| 20260505034545 | 33 | 0 | 0.0 | 1.7 | 0.00 | 0.00 | 0.00 | 61 | 1010.3 |
| 20260505034034 | 34 | 0 | 0.0 | 1.7 | 0.00 | 0.00 | 0.00 | 61 | 1010.3 |
| 20260505033534 | 34 | 0 | 0.0 | 0.9 | 0.00 | 0.00 | 0.00 | 60 | 1010.2 |
| 20260505033044 | 33 | 101 | 0.0 | 4.3 | 0.00 | 0.00 | 0.00 | 60 | 1010.2 |
| 20260505032534 | 33 | 0 | 0.9 | 4.3 | 0.00 | 0.00 | 0.00 | 61 | 1010.3 |
| 20260505032033 | 33 | 355 | 0.9 | 1.7 | 0.00 | 0.00 | 0.00 | 62 | 1010.3 |
| 20260505031539 | 33 | 357 | 0.0 | 1.7 | 0.00 | 0.00 | 0.00 | 62 | 1010.3 |
| 20260505031033 | 33 | 0 | 0.0 | 1.7 | 0.00 | 0.00 | 0.00 | 63 | 1010.3 |
| 20260505030534 | 32 | 0 | 0.9 | 1.7 | 0.00 | 0.00 | 0.00 | 62 | 1010.2 |
| 20260505030047 | 32 | 0 | 0.0 | 0.9 | 0.00 | 0.00 | 0.00 | 63 | 1010.2 |
| 20260505025536 | 33 | 319 | 0.0 | 0.9 | 0.00 | 0.00 | 0.00 | 62 | 1010.3 |
| 20260505025034 | 33 | 0 | 0.0 | 0.9 | 0.00 | 0.00 | 0.00 | 62 | 1010.1 |
| 20260505024544 | 33 | 0 | 0.0 | 0.9 | 0.00 | 0.00 | 0.00 | 61 | 1010.2 |
| 20260505024034 | 33 | 330 | 0.0 | 0.9 | 0.00 | 0.00 | 0.00 | 61 | 1010.3 |
| 20260505023534 | 34 | 65 | 0.0 | 0.9 | 0.00 | 0.00 | 0.00 | 58 | 1010.2 |
| 20260505023045 | 34 | 0 | 0.0 | 0.0 | 0.00 | 0.00 | 0.00 | 57 | 1010.2 |
| 20260505022534 | 35 | 0 | 0.0 | 0.9 | 0.00 | 0.00 | 0.00 | 56 | 1010.1 |
| 20260505022036 | 35 | 0 | 0.0 | 1.7 | 0.00 | 0.00 | 0.00 | 55 | 1010.0 |
| 20260505021538 | 35 | 347 | 0.0 | 1.7 | 0.00 | 0.00 | 0.00 | 55 | 1010.2 |
| 20260505021033 | 35 | 352 | 0.0 | 1.7 | 0.00 | 0.00 | 0.00 | 55 | 1010.1 |
| 20260505020536 | 35 | 0 | 0.0 | 0.9 | 0.00 | 0.00 | 0.00 | 57 | 1010.1 |
| 20260505020045 | 35 | 0 | 0.0 | 3.5 | 0.00 | 0.00 | 0.00 | 56 | 1010.0 |
| 20260505015534 | 35 | 0 | 0.0 | 3.5 | 0.00 | 0.00 | 0.00 | 56 | 1009.9 |
| 20260505015035 | 35 | 0 | 0.9 | 3.5 | 0.00 | 0.00 | 0.00 | 56 | 1009.9 |
| 20260505014546 | 36 | 0 | 0.0 | 1.7 | 0.00 | 0.00 | 0.00 | 54 | 1009.9 |
| 20260505014034 | 36 | 0 | 0.0 | 1.7 | 0.00 | 0.00 | 0.00 | 54 | 1009.7 |
| 20260505013534 | 36 | 0 | 0.0 | 0.9 | 0.00 | 0.00 | 0.00 | 55 | 1009.7 |
| 20260505013044 | 36 | 65 | 0.0 | 2.6 | 0.00 | 0.00 | 0.00 | 54 | 1009.6 |
| 20260505012534 | 36 | 0 | 0.0 | 2.6 | 0.00 | 0.00 | 0.00 | 53 | 1009.6 |
| 20260505012036 | 37 | 90 | 0.0 | 2.6 | 0.00 | 0.00 | 0.00 | 53 | 1009.5 |
| 20260505011549 | 37 | 23 | 0.9 | 2.6 | 0.00 | 0.00 | 0.00 | 52 | 1009.4 |
| 20260505011034 | 37 | 83 | 0.0 | 2.6 | 0.00 | 0.00 | 0.00 | 52 | 1009.4 |
| 20260505010534 | 37 | 351 | 0.9 | 2.6 | 0.00 | 0.00 | 0.00 | 52 | 1009.4 |
| 20260505010042 | 37 | 86 | 0.0 | 2.6 | 0.00 | 0.00 | 0.00 | 53 | 1009.3 |
| 20260505005534 | 37 | 346 | 0.0 | 2.6 | 0.00 | 0.00 | 0.00 | 54 | 1009.4 |
| 20260505005034 | 37 | 336 | 0.0 | 4.3 | 0.00 | 0.00 | 0.00 | 53 | 1009.4 |
| 20260505004548 | 38 | 343 | 0.9 | 4.3 | 0.00 | 0.00 | 0.00 | 52 | 1009.4 |
| 20260505004035 | 38 | 89 | 0.0 | 6.1 | 0.00 | 0.00 | 0.00 | 52 | 1009.2 |
| 20260505003537 | 38 | 0 | 0.0 | 6.1 | 0.00 | 0.00 | 0.00 | 52 | 1009.3 |
| 20260505003047 | 38 | 0 | 0.9 | 6.1 | 0.00 | 0.00 | 0.00 | 51 | 1009.1 |
| 20260505002533 | 38 | 0 | 0.9 | 6.1 | 0.00 | 0.00 | 0.00 | 53 | 1009.2 |
| 20260505002033 | 38 | 101 | 0.9 | 6.1 | 0.00 | 0.00 | 0.00 | 52 | 1009.1 |
| 20260505001546 | 38 | 333 | 1.7 | 6.1 | 0.00 | 0.00 | 0.00 | 52 | 1009.1 |
| 20260505001033 | 38 | 30 | 0.9 | 3.5 | 0.00 | 0.00 | 0.00 | 53 | 1009.0 |
| 20260505000535 | 38 | 0 | 0.0 | 3.5 | 0.00 | 0.00 | 0.00 | 53 | 1009.0 |
| 20260505000047 | 38 | 0 | 0.0 | 5.2 | 0.00 | 0.00 | 0.00 | 53 | 1008.8 |
| 20260504235533 | 38 | 148 | 0.0 | 5.2 | 0.00 | 0.00 | 0.00 | 52 | 1008.8 |
| 20260504235034 | 38 | 5 | 0.9 | 4.3 | 0.00 | 0.00 | 0.00 | 52 | 1008.8 |
| 20260504234542 | 39 | 0 | 0.0 | 3.5 | 0.00 | 0.00 | 0.00 | 52 | 1008.7 |
| 20260504234036 | 39 | 136 | 0.0 | 3.5 | 0.00 | 0.00 | 0.00 | 51 | 1008.8 |
| 20260504233537 | 39 | 0 | 0.0 | 0.9 | 0.00 | 0.00 | 0.00 | 51 | 1008.7 |
| 20260504233050 | 39 | 0 | 0.0 | 3.5 | 0.00 | 0.00 | 0.00 | 51 | 1008.7 |
| 20260504232533 | 40 | 0 | 0.0 | 10.4 | 0.00 | 0.00 | 0.00 | 50 | 1008.6 |
| 20260504232033 | 41 | 0 | 1.7 | 12.2 | 0.00 | 0.00 | 0.00 | 48 | 1008.6 |
| 20260504231547 | 41 | 346 | 6.1 | 12.2 | 0.00 | 0.00 | 0.00 | 48 | 1008.4 |
| 20260504231033 | 41 | 349 | 5.2 | 11.3 | 0.00 | 0.00 | 0.00 | 49 | 1008.5 |
| 20260504230534 | 41 | 285 | 6.1 | 12.2 | 0.00 | 0.00 | 0.00 | 49 | 1008.5 |
| 20260504230047 | 41 | 342 | 6.1 | 13.0 | 0.00 | 0.00 | 0.00 | 49 | 1008.6 |
| 20260504225534 | 41 | 278 | 5.2 | 13.0 | 0.00 | 0.00 | 0.00 | 50 | 1008.6 |
| 20260504225036 | 41 | 316 | 7.0 | 11.3 | 0.00 | 0.00 | 0.00 | 50 | 1008.6 |
| 20260504224548 | 41 | 299 | 4.3 | 8.7 | 0.00 | 0.00 | 0.00 | 53 | 1008.7 |
| 20260504224036 | 41 | 308 | 3.5 | 10.4 | 0.00 | 0.00 | 0.00 | 53 | 1008.7 |
| 20260504223535 | 42 | 323 | 4.3 | 10.4 | 0.00 | 0.00 | 0.00 | 53 | 1008.6 |
| 20260504223045 | 42 | 269 | 3.5 | 10.4 | 0.00 | 0.00 | 0.00 | 53 | 1008.6 |
| 20260504222534 | 42 | 335 | 3.5 | 13.0 | 0.00 | 0.00 | 0.00 | 53 | 1008.4 |
| 20260504222033 | 42 | 347 | 7.0 | 13.0 | 0.00 | 0.00 | 0.00 | 53 | 1008.3 |
| 20260504221543 | 42 | 328 | 6.1 | 12.2 | 0.00 | 0.00 | 0.00 | 53 | 1008.2 |
| 20260504221034 | 43 | 321 | 6.1 | 13.0 | 0.00 | 0.00 | 0.00 | 53 | 1008.2 |
| 20260504220534 | 43 | 259 | 6.1 | 13.0 | 0.00 | 0.00 | 0.00 | 54 | 1008.2 |
| 20260504220051 | 43 | 207 | 4.3 | 9.6 | 0.00 | 0.00 | 0.00 | 54 | 1008.1 |
| 20260504215534 | 43 | 351 | 4.3 | 9.6 | 0.00 | 0.00 | 0.00 | 54 | 1008.1 |
| 20260504215034 | 43 | 312 | 4.3 | 9.6 | 0.00 | 0.00 | 0.00 | 54 | 1008.0 |
| 20260504214551 | 44 | 215 | 4.3 | 8.7 | 0.00 | 0.00 | 0.00 | 54 | 1008.0 |
| 20260504214033 | 44 | 355 | 5.2 | 10.4 | 0.00 | 0.00 | 0.00 | 54 | 1007.8 |
| 20260504213533 | 44 | 326 | 3.5 | 10.4 | 0.00 | 0.00 | 0.00 | 55 | 1007.8 |
| 20260504213053 | 44 | 319 | 6.1 | 10.4 | 0.00 | 0.00 | 0.00 | 55 | 1007.7 |
| 20260504212534 | 45 | 354 | 3.5 | 11.3 | 0.00 | 0.00 | 0.00 | 54 | 1007.6 |
| 20260504212033 | 45 | 340 | 4.3 | 11.3 | 0.00 | 0.00 | 0.00 | 54 | 1007.7 |
| 20260504211545 | 45 | 298 | 6.1 | 11.3 | 0.00 | 0.00 | 0.00 | 53 | 1007.5 |
| 20260504211034 | 45 | 325 | 5.2 | 9.6 | 0.00 | 0.00 | 0.00 | 55 | 1007.5 |
| 20260504210533 | 46 | 356 | 5.2 | 12.2 | 0.00 | 0.00 | 0.00 | 55 | 1007.4 |
| 20260504210044 | 46 | 351 | 4.3 | 12.2 | 0.00 | 0.00 | 0.00 | 55 | 1007.5 |
| 20260504205533 | 46 | 350 | 5.2 | 11.3 | 0.00 | 0.00 | 0.00 | 56 | 1007.3 |
| 20260504205033 | 47 | 313 | 2.6 | 7.8 | 0.00 | 0.00 | 0.00 | 60 | 1007.2 |
| 20260504204539 | 47 | 4 | 2.6 | 7.8 | 0.00 | 0.00 | 0.00 | 62 | 1007.1 |
| 20260504204034 | 47 | 314 | 2.6 | 7.0 | 0.00 | 0.00 | 0.00 | 62 | 1007.1 |
| 20260504203534 | 47 | 240 | 2.6 | 7.8 | 0.00 | 0.00 | 0.00 | 64 | 1007.0 |
| 20260504203041 | 47 | 274 | 1.7 | 7.8 | 0.00 | 0.00 | 0.00 | 64 | 1006.9 |
| 20260504202534 | 47 | 259 | 0.9 | 8.7 | 0.00 | 0.00 | 0.00 | 64 | 1006.9 |
| 20260504202035 | 48 | 220 | 3.5 | 10.4 | 0.00 | 0.00 | 0.00 | 63 | 1006.8 |
| 20260504201548 | 48 | 262 | 5.2 | 10.4 | 0.00 | 0.00 | 0.00 | 63 | 1006.7 |
| 20260504201033 | 48 | 243 | 6.1 | 9.6 | 0.00 | 0.00 | 0.00 | 62 | 1006.6 |
| 20260504200534 | 48 | 238 | 5.2 | 11.3 | 0.00 | 0.00 | 0.00 | 62 | 1006.6 |
| 20260504200043 | 48 | 229 | 6.1 | 13.0 | 0.00 | 0.00 | 0.00 | 61 | 1006.6 |
| 20260504195533 | 49 | 293 | 7.0 | 13.0 | 0.00 | 0.00 | 0.00 | 60 | 1006.5 |
| 20260504195033 | 49 | 245 | 7.0 | 13.9 | 0.00 | 0.00 | 0.00 | 60 | 1006.4 |
| 20260504194547 | 49 | 239 | 6.1 | 13.9 | 0.00 | 0.00 | 0.00 | 59 | 1006.5 |
| 20260504194034 | 49 | 243 | 7.0 | 12.2 | 0.00 | 0.00 | 0.00 | 58 | 1006.5 |
| 20260504193534 | 49 | 260 | 7.0 | 16.5 | 0.00 | 0.00 | 0.00 | 58 | 1006.5 |
| 20260504193042 | 50 | 252 | 8.7 | 16.5 | 0.00 | 0.00 | 0.00 | 57 | 1006.4 |
| 20260504192533 | 50 | 232 | 7.8 | 13.0 | 0.00 | 0.00 | 0.00 | 58 | 1006.2 |
| 20260504192033 | 50 | 224 | 6.1 | 11.3 | 0.00 | 0.00 | 0.00 | 59 | 1006.2 |
| 20260504191552 | 50 | 296 | 4.3 | 12.2 | 0.00 | 0.00 | 0.00 | 58 | 1006.2 |
| 20260504191035 | 50 | 299 | 6.1 | 15.6 | 0.00 | 0.00 | 0.00 | 58 | 1006.0 |
| 20260504190534 | 51 | 238 | 6.1 | 15.6 | 0.00 | 0.00 | 0.00 | 58 | 1005.9 |
| 20260504190049 | 51 | 9 | 8.7 | 17.4 | 0.00 | 0.00 | 0.00 | 57 | 1005.8 |
| 20260504185533 | 51 | 240 | 8.7 | 17.4 | 0.00 | 0.00 | 0.00 | 57 | 1005.6 |
| 20260504185033 | 51 | 279 | 9.6 | 17.4 | 0.00 | 0.00 | 0.00 | 56 | 1005.6 |
| 20260504184552 | 51 | 231 | 9.6 | 15.6 | 0.00 | 0.00 | 0.00 | 55 | 1005.6 |
| 20260504184034 | 52 | 198 | 6.1 | 19.1 | 0.00 | 0.00 | 0.00 | 55 | 1005.5 |
| 20260504183534 | 52 | 290 | 6.1 | 19.1 | 0.00 | 0.00 | 0.00 | 54 | 1005.7 |
| 20260504183047 | 52 | 305 | 7.0 | 17.4 | 0.00 | 0.00 | 0.00 | 52 | 1006.1 |
| 20260504182533 | 53 | 233 | 7.8 | 19.1 | 0.00 | 0.00 | 0.00 | 51 | 1005.8 |
| 20260504182035 | 53 | 226 | 9.6 | 19.1 | 0.00 | 0.00 | 0.00 | 50 | 1005.7 |
| 20260504181549 | 53 | 219 | 7.8 | 13.0 | 0.00 | 0.00 | 0.00 | 50 | 1005.4 |
| 20260504181033 | 53 | 251 | 6.1 | 15.6 | 0.00 | 0.00 | 0.00 | 49 | 1005.6 |
| 20260504180534 | 53 | 241 | 8.7 | 15.6 | 0.00 | 0.00 | 0.00 | 49 | 1005.4 |
| 20260504180045 | 53 | 240 | 7.8 | 11.3 | 0.00 | 0.00 | 0.00 | 49 | 1005.4 |
| 20260504175533 | 54 | 248 | 6.1 | 17.4 | 0.00 | 0.00 | 0.00 | 48 | 1005.3 |
| 20260504175035 | 54 | 295 | 7.0 | 26.1 | 0.00 | 0.00 | 0.00 | 47 | 1005.3 |
| 20260504174541 | 54 | 292 | 7.8 | 26.1 | 0.00 | 0.00 | 0.00 | 45 | 1005.2 |
| 20260504174034 | 55 | 284 | 13.0 | 25.2 | 0.00 | 0.00 | 0.00 | 45 | 1005.2 |
| 20260504173533 | 55 | 202 | 7.0 | 20.9 | 0.00 | 0.00 | 0.00 | 45 | 1005.1 |
| 20260504173040 | 55 | 282 | 10.4 | 20.9 | 0.00 | 0.00 | 0.00 | 45 | 1005.2 |
| 20260504172609 | 55 | 250 | 9.6 | 21.7 | 0.00 | 0.00 | 0.00 | 44 | 1005.3 |
| 20260504172033 | 55 | 250 | 12.2 | 21.7 | 0.00 | 0.00 | 0.00 | 44 | 1005.1 |
| 20260504171549 | 56 | 218 | 13.0 | 20.9 | 0.00 | 0.00 | 0.00 | 43 | 1005.1 |
| 20260504171034 | 56 | 217 | 9.6 | 17.4 | 0.00 | 0.00 | 0.00 | 43 | 1005.2 |
| 20260504170534 | 57 | 262 | 6.1 | 15.6 | 0.00 | 0.00 | 0.00 | 42 | 1005.1 |
| 20260504151035 | 59 | 248 | 11.3 | 19.1 | 0.00 | 0.00 | 0.00 | 37 | 1005.3 |
| 20260504150534 | 59 | 237 | 6.1 | 14.8 | 0.00 | 0.00 | 0.00 | 38 | 1005.3 |
| 20260504141033 | 59 | 230 | 8.7 | 23.5 | 0.00 | 0.00 | 0.00 | 36 | 1005.2 |
| 20260504140533 | 59 | 245 | 8.7 | 17.4 | 0.00 | 0.00 | 0.00 | 37 | 1005.3 |
| 20260504130533 | 61 | 262 | 8.7 | 22.6 | 0.00 | 0.00 | 0.00 | 32 | 1005.6 |
| 20260504110533 | 59 | 252 | 3.5 | 11.3 | 0.00 | 0.00 | 0.00 | 36 | 1006.0 |